DMSP 5D-2 F13 DEB, 40513

Orbit data source: Space-Track

DMSP 5D-2 F13 DEB, 40513 is space debris in SSO originally from a launch on Fri, 24 Mar 1995 UTC launched from the Air Force Western Test Range (AFWTR). Debris objects in space refer to the collection of defunct objects orbiting the Earth. Examples of debris include non-operational satellites, rocket bodies, and fragments generated from explosions, collisions, or faulty payload assembly.

Loading next visibility...
Identifier
40513, 1995-015CZ
Orbit
SSO
Country
Flag of USUS
Related business
Manufacturer
Unknown
Mission
Spacecraft
Bus & Motor
Unknown
Mass
Unknown
Launch date (UTC)
1995-03-24 (31 years ago)
Launch vehicle
Unknown
Launch site
Air Force Western Test Range (AFWTR)
Object type
Payload
Rocket body
Debris
Shape & HBR
Unknown shape, 0.1 m
Radar Cross Section
Small (<0.1 m²)

Expand to show TLE details & history
Last TLE update: 3 days ago

TLE from 3 days ago
0 DMSP 5D-2 F13 DEB
1 40513U 95015CZ  26170.34104880  .00000709  00000-0  33607-3 0  9995
2 40513  98.7596 190.3592 0008402 109.7573 250.4511 14.22741149581876
Epoch: 2026-06-19T08:11Z
TLE epoch observation values (Epoch: 2026-06-19T08:11:06.616Z)
Latitude
-0.00008°
Longitude
160.01023°
Altitude
821.041 km
Speed
7.442 km/s
True Right ascension
12h 41m 26s
True Declination
0° 00' 00"
Sunlit
Object was in daylight at epoch
Visualization orbit readout
Latitude
Unknown
Longitude
Unknown
Altitude
Unknown
Speed
Unknown
Apparent Right ascension
Unknown
Apparent Declination
Unknown
Sunlit
N/A
Visualization observer readout
Local Sidereal Time
21:38:56
Azimuth
Unknown
Elevation
Unknown
Doppler factor
Unknown
Orbital elements
Apogee altitude
819.297 km
Perigee altitude
807.212 km
Semi-major axis
7,191.392 km
Eccentricity
0.00084
Inclination
98.7596°
RAAN
190.3592°
Arg. of periapsis
109.7573°
True anomaly
250.3604°
Mean anomaly
250.4511°
Eccentric anomaly
250.40575°
Mean motion
3.55897 °/min
Orbital period
101.15 mins
BSTAR
0.00033607

Documentation

Showing up to 5 results
|